Vorticity
-3 -1 10 20 22 19 11 8 9 11 12 11 12 12 12 13 13 15 14 15 15 16 17 30 13 4 -2 1 6 8 24 45 40 29 20 17 9 2 17 -1 6 -1 12 1 33 11 21 9 -5 9 -0 14 15 23
20 17 10 9 9 11 13 14 12 8 7 7 7 6 6 7 7 8 11 14 15 18 13 17 25 28 26 25 26 16 6 -1 -3 -4 5 19 1 -5 5 5 -16 4 7 -3 -20 -26 -28 -4 -2 19 13 21 18 14
7 10 10 10 10 9 7 7 6 6 7 8 9 10 10 10 10 9 10 8 14 16 26 7 32 21 -16 18 26 10 16 21 15 18 10 7 -0 9 8 22 16 20 15 18 26 25 14 11 8 29 19 5 4 4
10 9 8 7 6 5 5 5 6 7 8 9 8 8 9 9 8 8 8 10 17 7 21 6 16 17 18 21 22 24 23 19 16 16 16 10 6 14 10 6 3 11 5 4 -10 2 38 38 17 14 2 4 -0 2
8 9 9 10 11 10 9 9 8 9 11 11 11 10 9 9 9 8 9 10 3 8 4 12 15 14 5 17 25 19 9 15 17 16 17 19 25 24 21 25 22 32 36 32 25 -10 15 10 7 -2 3 4 8 11
4 4 5 6 6 7 9 10 9 10 12 13 12 11 11 10 9 9 7 9 9 8 10 12 3 28 26 15 -3 12 15 7 5 3 9 11 7 16 13 0 11 20 -6 16 17 12 11 7 2 0 3 3 7 6
4 4 5 5 6 6 7 8 9 10 11 12 11 10 10 11 12 11 11 2 8 12 15 21 35 8 5 2 15 7 -2 8 15 14 14 16 15 20 2 1 3 -5 30 9 11 9 4 13 -5 -1 3 4 12 11
5 5 5 5 7 8 7 7 8 10 10 11 12 11 10 11 10 10 8 8 10 17 41 18 3 15 15 11 -1 0 14 15 23 16 17 18 20 17 3 33 29 21 9 13 10 5 2 -2 0 -4 -4 5 10 13
5 5 6 6 8 8 9 8 9 9 9 10 10 10 8 15 11 9 10 11 17 26 17 10 9 15 0 -0 2 16 12 19 15 12 12 28 5 -5 8 4 5 10 11 11 8 1 3 1 -2 1 10 10 10 13
8 7 7 7 8 8 8 7 8 10 9 9 12 10 8 9 12 15 23 39 35 10 15 7 10 1 2 2 9 19 22 12 6 21 18 15 11 9 20 8 9 10 6 3 3 1 -6 -9 -4 8 11 15 14 12
7 6 8 9 9 9 9 7 7 6 7 6 7 8 10 11 24 38 22 10 15 11 21 9 2 -4 -0 7 7 46 7 17 20 10 14 10 0 -5 26 5 14 11 6 10 7 -6 -2 -4 -3 17 7 11 12 10
6 6 3 4 8 10 10 9 7 8 7 6 8 11 16 52 26 26 12 12 7 16 5 -0 -4 0 2 12 41 19 20 17 6 8 14 14 10 15 26 8 10 5 2 4 -14 -10 -0 10 17 16 18 15 9 14
8 9 5 4 8 11 10 9 8 7 9 11 13 37 32 1 10 5 7 -2 -9 -4 6 12 -1 2 13 30 13 29 13 7 15 21 8 16 24 23 21 7 10 4 2 -39 -4 9 7 20 12 11 11 12 14 16
10 8 9 9 10 11 12 10 9 9 10 21 40 8 25 13 10 -6 10 4 8 14 6 9 5 -1 8 47 30 9 12 10 11 10 -8 40 35 24 35 11 1 -6 -36 -7 5 16 22 12 7 7 10 10 10 13
2 6 10 10 10 10 10 10 9 9 9 17 43 12 6 9 1 7 8 8 12 6 7 11 18 32 18 26 19 11 15 15 8 -5 5 9 -14 -2 3 3 -9 13 15 24 21 15 6 10 12 11 12 12 12 12
5 1 11 11 12 12 10 10 9 10 11 35 12 -16 21 -2 -7 9 18 12 16 10 10 8 25 34 28 17 19 -1 2 -22 -21 -2 1 -5 -9 3 -2 6 3 7 4 7 10 9 8 8 12 12 9 15 17 14
6 9 13 13 17 15 13 12 12 12 36 5 -25 13 -1 -4 -3 17 11 15 13 14 12 13 17 4 -1 25 9 -13 -21 10 7 6 9 2 5 9 10 5 5 3 26 3 16 13 8 7 10 10 7 7 7 7
13 21 19 18 26 22 15 14 21 4 -1 -4 -0 14 18 -3 2 -1 4 8 14 12 8 14 14 8 -15 -10 -10 -8 10 3 4 0 2 1 2 3 9 4 16 13 9 19 14 14 7 8 12 13 13 8 6 6
28 28 16 19 16 15 12 8 14 -3 -6 6 -6 9 24 3 3 8 16 17 16 13 11 15 31 14 9 17 12 8 3 9 1 15 1 1 4 6 8 12 13 10 19 16 15 14 4 7 10 9 8 7 7 5
16 6 8 12 11 8 7 14 12 6 4 2 12 10 7 1 17 17 11 10 13 15 16 13 15 10 10 5 13 7 8 10 10 6 2 7 16 23 20 19 11 15 14 13 6 7 7 11 14 13 13 13 14 15
-2 1 36 19 4 1 5 11 -3 -12 -10 -13 14 28 11 -2 -1 11 17 18 9 7 21 15 14 13 13 14 11 12 17 20 19 24 19 23 23 20 14 14 13 11 8 7 7 13 15 16 17 19 19 19 20 17
16 26 20 14 7 9 1 9 19 20 39 3 3 11 8 9 12 10 11 22 11 9 14 15 13 15 16 17 18 20 26 32 30 26 20 13 11 7 4 7 8 9 12 18 20 19 20 18 19 20 19 18 18 18
31 35 28 25 16 19 7 37 30 31 45 40 45 50 56 63 61 48 40 33 37 32 27 22 24 26 28 30 26 19 10 3 -1 -1 5 8 10 13 18 19 21 20 21 21 22 20 18 17 15 15 15 16 17 16
17 14 22 27 30 2 15 14 32 9 13 -8 -6 -8 2 13 3 -0 5 3 6 14 22 25 29 22 11 1 -6 -11 0 10 14 16 17 21 22 20 19 17 16 14 15 13 11 10 10 10 10 11 11 13 14 15
24 23 0 -1 -3 6 -3 12 -5 12 2 10 27 32 3 10 21 12 17 23 30 26 21 9 -17 -22 -6 16 17 23 24 25 23 22 17 16 13 11 11 11 10 7 6 5 6 7 9 10 9 10 12 13 13 14
25 21 13 5 2 -5 7 13 11 12 15 25 15 21 5 5 35 1 7 34 2 -19 -16 -6 1 8 13 15 18 18 13 15 11 13 9 10 9 7 6 7 9 9 12 15 17 18 17 16 16 16 14 15 13 13
12 2 -17 2 7 9 12 16 12 17 26 29 6 10 24 28 21 13 -6 -22 -17 0 9 12 16 21 23 24 23 18 13 10 8 7 8 10 11 10 9 10 13 15 17 17 17 17 18 19 20 19 17 16 14 13
-5 17 16 20 20 21 18 24 21 36 7 -12 -3 5 18 -21 -28 11 18 14 10 19 27 25 23 24 21 14 10 11 10 7 5 7 10 13 17 20 19 19 19 17 15 14 14 12 12 12 20 19 15 14 14 10
15 17 18 17 15 14 14 13 11 7 12 12 11 10 9 14 16 19 26 26 27 27 21 14 12 14 11 9 8 8 8 12 17 19 20 19 19 19 16 17 18 16 15 13 10 10 13 14 17 20 6 8 11 13
14 15 15 16 15 14 11 14 13 15 19 19 19 21 22 24 29 29 21 9 11 20 17 11 7 10 8 11 16 18 19 18 19 18 20 20 21 21 20 19 18 19 13 14 15 17 14 13 12 15 17 15 12 10
12 12 13 14 15 15 15 13 17 22 22 23 27 27 13 11 15 12 19 15 13 11 10 10 12 14 13 13 15 15 19 19 17 15 17 19 20 22 23 19 12 18 17 10 14 13 14 17 17 18 20 17 18 13
13 10 11 13 14 15 13 14 19 21 32 10 18 14 14 13 14 14 13 14 13 12 13 12 14 10 11 14 13 13 14 19 17 17 18 19 20 18 15 14 17 7 4 9 8 11 13 17 17 15 19 21 21 18
9 7 8 11 8 10 10 10 13 22 25 4 11 16 10 14 12 13 13 12 12 11 13 13 10 12 14 13 12 13 16 17 18 16 15 15 14 15 18 3 3 3 8 13 17 21 21 20 21 15 14 17 18 17
Height
3115 3116 3116 3117 3115 3112 3112 3111 3108 3104 3103 3101 3098 3094 3091 3089 3085 3082 3079 3075 3073 3070 3067 3063 3061 3058 3057 3055 3051 3049 3050 3045 3044 3043 3042 3038 3033 3033 3031 3030 3029 3030 3029 3028 3026 3025 3021 3017 3016 3019 3017 3013 3010 3008
3115 3115 3115 3114 3114 3112 3109 3109 3107 3104 3101 3098 3094 3091 3088 3085 3082 3078 3075 3070 3067 3064 3061 3057 3054 3051 3049 3046 3046 3043 3044 3042 3040 3037 3036 3032 3030 3027 3026 3026 3025 3024 3024 3024 3025 3018 3013 3010 3009 3009 3009 3007 3006 3005
3114 3115 3115 3114 3113 3111 3110 3108 3105 3102 3099 3096 3093 3089 3085 3081 3078 3075 3071 3066 3062 3059 3055 3052 3049 3047 3045 3041 3040 3039 3037 3036 3033 3032 3030 3028 3024 3023 3020 3018 3016 3015 3014 3013 3016 3012 3009 3007 3005 3005 3004 3004 3002 3000
3117 3117 3116 3115 3113 3111 3109 3107 3104 3101 3098 3094 3090 3086 3082 3078 3074 3070 3067 3062 3057 3053 3050 3049 3044 3041 3038 3037 3034 3032 3032 3030 3028 3027 3024 3021 3019 3018 3013 3013 3011 3012 3008 3008 3008 3005 3005 3003 3001 3002 3002 3000 2999 2995
3120 3118 3117 3115 3112 3110 3107 3104 3101 3098 3094 3090 3086 3082 3078 3074 3069 3065 3062 3058 3053 3053 3048 3043 3039 3036 3033 3031 3030 3029 3027 3025 3023 3021 3018 3015 3014 3012 3008 3007 3003 3005 3003 3002 3001 3000 3000 3001 3000 3000 2999 2997 2993 2990
3120 3118 3116 3114 3112 3109 3106 3102 3099 3095 3091 3087 3083 3079 3074 3070 3065 3061 3058 3056 3051 3047 3042 3039 3035 3031 3029 3029 3029 3027 3026 3023 3020 3017 3013 3010 3008 3008 3004 3001 3001 3001 2999 2999 2998 2997 2998 2998 2996 2996 2994 2991 2988 2984
3120 3118 3115 3112 3109 3106 3102 3099 3095 3091 3087 3083 3079 3075 3071 3067 3063 3059 3055 3050 3045 3041 3037 3032 3030 3029 3028 3026 3025 3024 3023 3018 3015 3011 3007 3005 3001 3002 2999 2997 2998 2997 2996 2995 2994 2994 2995 2994 2993 2991 2989 2986 2982 2977
3119 3116 3113 3110 3107 3103 3099 3095 3090 3087 3083 3078 3074 3070 3066 3061 3057 3053 3049 3044 3040 3036 3033 3030 3030 3029 3026 3024 3022 3019 3016 3012 3007 3002 2999 2997 2996 2995 2991 2992 2992 2993 2992 2992 2991 2991 2991 2991 2989 2986 2983 2979 2975 2970
3116 3113 3110 3107 3103 3100 3095 3091 3087 3082 3078 3073 3068 3064 3061 3057 3053 3048 3043 3039 3035 3035 3029 3027 3027 3027 3026 3022 3019 3015 3010 3005 3001 2997 2995 2994 2991 2989 2989 2989 2988 2988 2988 2988 2988 2987 2987 2986 2983 2980 2975 2970 2966 2962
3113 3110 3106 3102 3099 3094 3090 3086 3082 3077 3073 3067 3063 3059 3054 3050 3045 3042 3034 3032 3029 3028 3026 3024 3024 3025 3025 3020 3015 3013 3006 3002 2997 2995 2991 2987 2985 2985 2984 2984 2984 2984 2984 2984 2983 2982 2982 2979 2975 2971 2966 2961 2956 2952
3108 3105 3101 3097 3093 3088 3084 3079 3075 3071 3067 3062 3056 3053 3050 3044 3040 3034 3030 3031 3027 3025 3024 3023 3022 3021 3018 3016 3013 3010 3004 3000 2994 2992 2989 2983 2980 2980 2979 2980 2980 2980 2979 2979 2979 2977 2973 2969 2965 2962 2958 2953 2949 2944
3103 3099 3095 3090 3086 3082 3078 3073 3068 3065 3059 3055 3052 3047 3043 3038 3035 3033 3027 3028 3026 3023 3021 3020 3019 3016 3014 3012 3008 3005 3001 2998 2991 2987 2985 2977 2976 2975 2975 2975 2975 2975 2974 2973 2972 2970 2967 2963 2958 2953 2949 2945 2941 2936
3096 3093 3089 3085 3080 3076 3071 3068 3063 3058 3053 3050 3046 3041 3039 3036 3032 3028 3026 3024 3023 3020 3018 3016 3014 3012 3009 3008 3005 3002 2996 2991 2987 2983 2978 2973 2973 2972 2972 2972 2971 2969 2968 2966 2964 2961 2958 2954 2950 2946 2941 2937 2932 2928
3090 3086 3083 3077 3073 3069 3064 3060 3056 3052 3047 3045 3041 3037 3034 3027 3025 3024 3022 3021 3019 3016 3013 3011 3008 3008 3004 3002 3000 2995 2991 2986 2981 2976 2971 2970 2970 2970 2969 2968 2965 2962 2960 2957 2955 2951 2948 2945 2941 2937 2932 2928 2924 2920
3082 3079 3077 3070 3066 3061 3056 3052 3048 3044 3041 3038 3035 3030 3024 3022 3021 3019 3017 3015 3014 3010 3007 3003 3002 3001 2998 2996 2992 2989 2985 2978 2972 2967 2967 2967 2965 2966 2965 2963 2961 2958 2954 2950 2947 2943 2940 2936 2932 2928 2923 2918 2914 2911
3073 3069 3069 3062 3057 3052 3048 3043 3039 3036 3031 3029 3022 3020 3019 3017 3017 3014 3011 3009 3007 3003 2998 2997 2995 2991 2988 2986 2982 2978 2974 2967 2965 2964 2963 2961 2959 2957 2956 2953 2950 2947 2944 2940 2937 2933 2929 2926 2923 2919 2915 2910 2906 2901
3062 3060 3056 3051 3047 3043 3039 3034 3029 3025 3020 3014 3010 3011 3012 3009 3009 3006 3004 3001 2998 2995 2991 2990 2986 2983 2979 2974 2968 2966 2960 2961 2959 2957 2955 2952 2950 2947 2945 2942 2938 2935 2931 2928 2924 2921 2918 2914 2911 2907 2904 2901 2897 2894
3051 3048 3043 3038 3034 3031 3028 3024 3020 3014 3005 3002 2999 3000 3000 2997 2997 2996 2995 2992 2989 2985 2982 2978 2976 2970 2966 2961 2957 2957 2955 2953 2949 2945 2943 2941 2939 2936 2933 2930 2926 2923 2920 2916 2913 2910 2907 2903 2900 2897 2893 2890 2886 2882
3039 3035 3033 3030 3027 3022 3018 3011 3007 2999 2995 2994 2989 2988 2987 2984 2983 2983 2982 2980 2977 2974 2970 2966 2962 2955 2953 2951 2948 2946 2943 2940 2937 2933 2929 2927 2925 2923 2920 2917 2914 2911 2908 2905 2902 2898 2895 2891 2887 2884 2880 2876 2873 2869
3029 3027 3025 3022 3019 3012 3007 3001 2995 2988 2981 2983 2979 2977 2977 2974 2973 2970 2968 2966 2965 2962 2958 2953 2950 2947 2943 2939 2936 2933 2930 2927 2924 2920 2915 2913 2910 2907 2904 2902 2900 2897 2895 2893 2890 2886 2882 2879 2874 2870 2867 2862 2857 2854
3018 3017 3012 3010 3006 3003 2995 2989 2984 2977 2974 2971 2968 2966 2963 2961 2960 2958 2956 2955 2953 2950 2945 2940 2937 2934 2931 2926 2923 2920 2916 2913 2910 2907 2903 2900 2898 2896 2893 2889 2887 2885 2883 2880 2876 2873 2868 2864 2860 2856 2852 2848 2843 2840
3005 3001 2995 2994 2991 2987 2979 2975 2971 2967 2964 2958 2956 2954 2950 2948 2948 2946 2944 2942 2938 2935 2931 2928 2925 2921 2917 2914 2910 2907 2905 2902 2900 2897 2894 2891 2888 2886 2883 2880 2876 2873 2870 2866 2863 2859 2855 2851 2846 2843 2840 2836 2832 2829
2992 2989 2984 2981 2978 2972 2968 2964 2961 2958 2954 2948 2944 2941 2939 2936 2935 2933 2931 2928 2924 2921 2919 2916 2913 2910 2908 2906 2903 2901 2898 2896 2893 2890 2886 2882 2877 2873 2870 2867 2864 2861 2857 2853 2850 2847 2844 2840 2836 2833 2829 2826 2822 2819
2983 2980 2976 2972 2965 2960 2956 2955 2953 2950 2946 2942 2939 2937 2936 2933 2931 2929 2926 2924 2921 2917 2913 2909 2906 2904 2902 2899 2896 2893 2890 2886 2881 2877 2874 2870 2867 2863 2860 2857 2853 2850 2847 2844 2841 2838 2835 2832 2828 2825 2821 2817 2814 2810
2976 2974 2971 2964 2959 2956 2953 2950 2948 2945 2942 2938 2934 2933 2931 2929 2925 2921 2918 2915 2912 2909 2906 2904 2902 2898 2895 2890 2886 2882 2878 2874 2871 2868 2863 2859 2856 2854 2851 2848 2844 2841 2837 2835 2832 2829 2826 2823 2819 2816 2813 2810 2806 2803
2969 2964 2964 2959 2956 2954 2950 2947 2944 2940 2936 2934 2931 2928 2925 2922 2919 2915 2912 2909 2906 2904 2901 2897 2893 2888 2884 2880 2877 2873 2869 2865 2862 2859 2856 2852 2848 2844 2841 2838 2836 2834 2828 2824 2821 2818 2815 2812 2810 2807 2805 2803 2799 2796
2966 2963 2960 2957 2954 2951 2947 2944 2940 2936 2932 2928 2926 2923 2921 2918 2913 2910 2908 2905 2901 2897 2893 2889 2885 2882 2878 2874 2870 2867 2863 2859 2855 2852 2848 2845 2840 2836 2832 2828 2826 2823 2819 2816 2813 2809 2806 2803 2800 2797 2795 2793 2791 2788
2964 2959 2956 2953 2949 2945 2942 2938 2934 2931 2928 2926 2923 2920 2917 2914 2909 2906 2901 2897 2894 2890 2886 2882 2879 2876 2872 2869 2865 2861 2857 2852 2848 2844 2840 2838 2833 2828 2823 2819 2815 2812 2809 2807 2804 2801 2798 2795 2792 2789 2786 2784 2784 2782
2958 2954 2951 2947 2944 2940 2937 2934 2931 2927 2925 2920 2915 2910 2907 2904 2900 2896 2893 2889 2886 2883 2880 2877 2874 2871 2868 2864 2861 2856 2850 2843 2837 2833 2830 2827 2824 2821 2815 2811 2808 2805 2803 2800 2798 2794 2791 2788 2785 2783 2780 2777 2776 2775
2955 2951 2947 2944 2940 2937 2934 2931 2926 2922 2917 2912 2907 2903 2900 2897 2893 2890 2887 2884 2881 2878 2875 2872 2869 2866 2862 2857 2853 2849 2845 2838 2832 2826 2820 2817 2813 2811 2807 2804 2801 2799 2795 2793 2790 2789 2786 2783 2780 2777 2775 2772 2771 2769
2952 2948 2945 2941 2937 2934 2930 2926 2921 2916 2911 2906 2902 2899 2895 2893 2891 2887 2884 2880 2877 2874 2871 2867 2864 2860 2855 2850 2843 2837 2835 2832 2825 2820 2815 2811 2807 2804 2802 2799 2796 2794 2790 2787 2785 2782 2780 2776 2773 2770 2768 2766 2765 2763
2949 2946 2942 2937 2934 2930 2926 2921 2916 2911 2907 2903 2900 2897 2893 2890 2887 2884 2880 2877 2873 2870 2866 2862 2858 2853 2849 2844 2838 2833 2827 2823 2819 2815 2811 2808 2804 2801 2798 2794 2792 2789 2785 2781 2779 2776 2773 2770 2767 2764 2761 2759 2758 2757
2947 2944 2939 2935 2931 2926 2922 2918 2912 2908 2904 2901 2898 2895 2892 2888 2884 2881 2877 2873 2869 2864 2860 2856 2852 2848 2843 2838 2833 2828 2824 2820 2815 2810 2807 2804 2800 2798 2795 2792 2789 2783 2778 2775 2773 2770 2767 2764 2761 2759 2756 2754 2753 2751